Terminal Aerodrome Forecast
Issued by NWS Chicago, IL

Home | Current Version | Previous Version | Graphics & Text | Print | Product List | Glossary On
Versions: 1 2 3 4 5 6 7 8 9 10 11 12 13 14 15 16 17 18 19 20 21 22 23 24 25 26 27 28 29 30 31
000
FTUS43 KLOT 280900 AAA
TAFRFD
TAF AMD
KRFD 280900Z 2809/2906 13006KT P6SM SCT250
     FM281700 15010KT P6SM SCT050 BKN250
     FM282100 15009KT P6SM SCT050 BKN120
     FM290100 16006KT P6SM BKN050
      TEMPO 2904/2906 3SM TSRA OVC050CB=

USA.gov is the U.S. government's official web portal to all federal, state and local government web resources and services.